TimeMST,TemperatureF,Dew PointF,Humidity,Sea Level PressureIn,VisibilityMPH,Wind Direction,Wind SpeedMPH,Gust SpeedMPH,PrecipitationIn,Events,Conditions,WindDirDegrees,DateUTC
12:15 AM,17.6,12.2,79,30.05,10.0,NNW,8.1,-,N/A,,Scattered Clouds,330,2013-02-27 07:15:00
12:35 AM,17.6,12.2,79,30.05,10.0,NNW,5.8,-,N/A,,Clear,340,2013-02-27 07:35:00
12:55 AM,17.6,10.4,73,30.06,10.0,North,5.8,-,N/A,,Clear,350,2013-02-27 07:55:00
1:15 AM,15.8,8.6,73,30.06,10.0,North,8.1,-,N/A,,Clear,360,2013-02-27 08:15:00
1:35 AM,17.6,8.6,68,30.07,10.0,North,5.8,-,N/A,,Clear,360,2013-02-27 08:35:00
1:55 AM,14.0,6.8,73,30.06,10.0,North,6.9,-,N/A,,Clear,350,2013-02-27 08:55:00
2:15 AM,14.0,8.6,79,30.06,10.0,Calm,Calm,-,N/A,,Clear,0,2013-02-27 09:15:00
2:35 AM,12.2,6.8,79,30.06,10.0,NE,3.5,-,N/A,,Clear,50,2013-02-27 09:35:00
2:55 AM,15.8,8.6,73,30.07,10.0,Calm,Calm,-,N/A,,Clear,0,2013-02-27 09:55:00
3:15 AM,12.2,6.8,79,30.08,10.0,East,5.8,-,N/A,,Clear,80,2013-02-27 10:15:00
3:35 AM,10.4,6.8,85,30.08,10.0,ENE,3.5,-,N/A,,Clear,60,2013-02-27 10:35:00
3:55 AM,10.4,5.0,79,30.09,10.0,ENE,4.6,-,N/A,,Clear,70,2013-02-27 10:55:00
4:15 AM,8.6,3.2,79,30.10,10.0,ENE,3.5,-,N/A,,Clear,70,2013-02-27 11:15:00
4:35 AM,8.6,3.2,79,30.12,10.0,East,5.8,-,N/A,,Clear,90,2013-02-27 11:35:00
5:15 AM,6.8,3.2,85,30.14,10.0,Calm,Calm,-,N/A,,Clear,0,2013-02-27 12:15:00
5:55 AM,8.6,5.0,85,30.15,10.0,East,6.9,-,N/A,,Clear,80,2013-02-27 12:55:00
6:15 AM,8.6,1.4,73,30.16,10.0,ENE,5.8,-,N/A,,Clear,70,2013-02-27 13:15:00
6:35 AM,6.8,-0.4,72,30.17,10.0,Calm,Calm,-,N/A,,Clear,0,2013-02-27 13:35:00
6:55 AM,6.8,1.4,79,30.18,10.0,NNE,3.5,-,N/A,,Clear,30,2013-02-27 13:55:00
7:15 AM,8.6,-0.4,67,30.19,10.0,North,5.8,-,N/A,,Clear,360,2013-02-27 14:15:00
7:35 AM,12.2,6.8,79,30.20,10.0,NNE,4.6,-,N/A,,Clear,20,2013-02-27 14:35:00
7:55 AM,15.8,6.8,68,30.22,10.0,North,4.6,-,N/A,,Clear,360,2013-02-27 14:55:00
8:15 AM,15.8,8.6,73,30.23,10.0,North,3.5,-,N/A,,Clear,360,2013-02-27 15:15:00
8:35 AM,17.6,8.6,68,30.23,10.0,North,4.6,-,N/A,,Clear,350,2013-02-27 15:35:00
8:55 AM,19.4,10.4,68,30.23,10.0,North,4.6,-,N/A,,Clear,350,2013-02-27 15:55:00
9:15 AM,21.2,8.6,58,30.23,10.0,North,5.8,-,N/A,,Clear,10,2013-02-27 16:15:00
9:35 AM,21.2,10.4,63,30.24,10.0,Calm,Calm,-,N/A,,Clear,0,2013-02-27 16:35:00
9:55 AM,23.0,10.4,59,30.24,10.0,Calm,Calm,-,N/A,,Clear,0,2013-02-27 16:55:00
10:15 AM,24.8,8.6,50,30.23,10.0,Calm,Calm,-,N/A,,Clear,0,2013-02-27 17:15:00
10:35 AM,26.6,10.4,51,30.23,10.0,Calm,Calm,-,N/A,,Clear,0,2013-02-27 17:35:00
10:55 AM,26.6,8.6,47,30.22,10.0,Calm,Calm,-,N/A,,Clear,0,2013-02-27 17:55:00
11:15 AM,30.2,10.4,44,30.22,10.0,North,4.6,-,N/A,,Clear,350,2013-02-27 18:15:00
11:35 AM,30.2,10.4,44,30.21,10.0,Calm,Calm,-,N/A,,Clear,0,2013-02-27 18:35:00
11:55 AM,30.2,8.6,40,30.21,10.0,Calm,Calm,-,N/A,,Clear,0,2013-02-27 18:55:00
12:15 PM,32.0,10.4,41,30.21,10.0,WNW,4.6,-,N/A,,Clear,300,2013-02-27 19:15:00
12:35 PM,33.8,8.6,35,30.20,10.0,NW,4.6,-,N/A,,Clear,320,2013-02-27 19:35:00
12:55 PM,33.8,6.8,32,30.19,10.0,Calm,Calm,-,N/A,,Clear,0,2013-02-27 19:55:00
1:15 PM,33.8,8.6,35,30.19,10.0,WNW,4.6,-,N/A,,Clear,300,2013-02-27 20:15:00
1:35 PM,35.6,8.6,33,30.18,10.0,NW,3.5,-,N/A,,Clear,320,2013-02-27 20:35:00
1:55 PM,35.6,8.6,33,30.17,10.0,NNW,5.8,-,N/A,,Clear,340,2013-02-27 20:55:00
2:15 PM,35.6,6.8,30,30.16,10.0,East,3.5,-,N/A,,Clear,100,2013-02-27 21:15:00
2:35 PM,37.4,8.6,30,30.16,10.0,NW,4.6,-,N/A,,Partly Cloudy,310,2013-02-27 21:35:00
2:55 PM,37.4,8.6,30,30.15,10.0,WNW,6.9,-,N/A,,Clear,300,2013-02-27 21:55:00
3:15 PM,35.6,8.6,33,30.15,10.0,WSW,6.9,-,N/A,,Clear,240,2013-02-27 22:15:00
3:35 PM,37.4,6.8,28,30.15,10.0,NE,3.5,-,N/A,,Clear,50,2013-02-27 22:35:00
3:55 PM,37.4,6.8,28,30.15,10.0,South,5.8,-,N/A,,Partly Cloudy,180,2013-02-27 22:55:00
4:15 PM,35.6,5.0,28,30.15,10.0,Calm,Calm,-,N/A,,Partly Cloudy,0,2013-02-27 23:15:00
4:35 PM,37.4,6.8,28,30.15,10.0,Calm,Calm,-,N/A,,Mostly Cloudy,0,2013-02-27 23:35:00
4:55 PM,35.6,3.2,26,30.15,10.0,SW,5.8,-,N/A,,Scattered Clouds,230,2013-02-27 23:55:00
5:15 PM,35.6,3.2,26,30.15,10.0,WSW,9.2,-,N/A,,Clear,250,2013-02-28 00:15:00
5:35 PM,33.8,6.8,32,30.15,10.0,WSW,8.1,-,N/A,,Clear,250,2013-02-28 00:35:00
5:55 PM,33.8,8.6,35,30.16,10.0,SW,9.2,-,N/A,,Clear,230,2013-02-28 00:55:00
6:15 PM,28.4,8.6,43,30.16,10.0,West,6.9,-,N/A,,Clear,260,2013-02-28 01:15:00
6:35 PM,26.6,8.6,47,30.17,10.0,West,6.9,-,N/A,,Clear,260,2013-02-28 01:35:00
7:15 PM,26.6,8.6,47,30.18,10.0,West,8.1,-,N/A,,Clear,260,2013-02-28 02:15:00
7:35 PM,26.6,6.8,43,30.18,10.0,West,4.6,-,N/A,,Clear,270,2013-02-28 02:35:00
7:55 PM,23.0,6.8,50,30.18,10.0,North,4.6,-,N/A,,Clear,360,2013-02-28 02:55:00
8:15 PM,24.8,6.8,46,30.19,10.0,North,4.6,-,N/A,,Clear,350,2013-02-28 03:15:00
8:35 PM,26.6,6.8,43,30.19,10.0,NNW,3.5,-,N/A,,Clear,340,2013-02-28 03:35:00
8:55 PM,21.2,8.6,58,30.19,10.0,Calm,Calm,-,N/A,,Clear,0,2013-02-28 03:55:00
9:35 PM,21.2,12.2,68,30.20,10.0,Calm,Calm,-,N/A,,Clear,0,2013-02-28 04:35:00
9:55 PM,19.4,10.4,68,30.21,10.0,Calm,Calm,-,N/A,,Clear,0,2013-02-28 04:55:00
10:15 PM,19.4,10.4,68,30.21,10.0,ESE,3.5,-,N/A,,Clear,120,2013-02-28 05:15:00
10:35 PM,17.6,8.6,68,30.21,10.0,NNE,8.1,-,N/A,,Clear,30,2013-02-28 05:35:00
11:15 PM,17.6,8.6,68,30.22,10.0,NNW,4.6,-,N/A,,Clear,340,2013-02-28 06:15:00
11:55 PM,17.6,8.6,68,30.21,10.0,NNW,4.6,-,N/A,,Clear,340,2013-02-28 06:55:00